Location: Laura�t
(43.9341°N, 0.2497°E)
Time: 07:24:49
(UTC+00:00)

CSL-04 Rocket - Visible Passes

Search period start: 21 June 2021 00:00
Search period end: 01 July 2021 00:00
Orbit: 807 x 859 km, 98.9° (Epoch: 20 June)

Date Brightness Start Highest point End Pass type
(mag) Time Alt. Az. Time Alt. Az. Time Alt. Az.
21 Jun 6.3 20:47:48 10° SW 20:51:06 16° W 20:54:25 10° NW visible
22 Jun 6.0 20:29:41 10° SW 20:33:56 22° W 20:38:14 10° NW visible
26 Jun 6.5 21:05:12 10° WSW 21:06:53 11° W 21:08:36 10° WNW visible
27 Jun 6.2 20:46:16 10° SW 20:49:42 17° W 20:53:09 10° NW visible
28 Jun 6.0 20:28:12 10° SW 20:32:33 23° W 20:36:54 10° NW visible
